N23SM KTPA-KMIA

Flight info

Callsign N23SM
Flight time 0h 47m
Altitude 15000
Route CEXAN RSW PALMZ2
Aircraft TBM8/L-SDFGRWY/S

Departure

Time 2026-05-07 16:52
Airport Tampa International Airport (KTPA)

Arrival

Time 2026-05-07 17:40
Airport Miami International Airport (KMIA)
Time Latitude Longitude Altitude Speed Heading
2026-05-07 16:34 27.96857 -82.52028 32 ft 0 kts 356°
2026-05-07 16:44 27.96865 -82.52020 32 ft 6 kts 90°
2026-05-07 16:44 27.96899 -82.51983 31 ft 15 kts 319°
2026-05-07 16:44 27.96922 -82.52100 35 ft 16 kts 273°
2026-05-07 16:44 27.96928 -82.52253 37 ft 19 kts 273°
2026-05-07 16:45 27.96929 -82.52438 36 ft 28 kts 272°
2026-05-07 16:45 27.96940 -82.52639 38 ft 19 kts 273°
2026-05-07 16:45 27.96944 -82.52807 35 ft 25 kts 271°
2026-05-07 16:45 27.96959 -82.52966 30 ft 18 kts 288°
2026-05-07 16:46 27.97086 -82.52998 31 ft 25 kts 358°
2026-05-07 16:46 27.97191 -82.53100 30 ft 22 kts 272°
2026-05-07 16:46 27.97201 -82.53283 31 ft 18 kts 288°
2026-05-07 16:46 27.97297 -82.53339 32 ft 17 kts 311°
2026-05-07 16:47 27.97314 -82.53479 31 ft 21 kts 277°
2026-05-07 16:47 27.97369 -82.53673 19 ft 31 kts 299°
2026-05-07 16:47 27.97463 -82.53843 29 ft 20 kts 302°
2026-05-07 16:47 27.97525 -82.53973 28 ft 18 kts 314°
2026-05-07 16:48 27.97607 -82.54060 27 ft 17 kts 343°
2026-05-07 16:48 27.97732 -82.54064 27 ft 20 kts 359°
2026-05-07 16:48 27.97916 -82.54058 29 ft 34 kts
2026-05-07 16:48 27.98156 -82.54051 33 ft 26 kts
2026-05-07 16:49 27.98324 -82.54044 37 ft 29 kts
2026-05-07 16:49 27.98521 -82.54037 39 ft 23 kts
2026-05-07 16:49 27.98671 -82.54033 39 ft 23 kts
2026-05-07 16:49 27.98866 -82.54026 38 ft 34 kts
2026-05-07 16:50 27.99092 -82.54018 34 ft 26 kts
2026-05-07 16:50 27.99235 -82.54019 33 ft 16 kts 339°
2026-05-07 16:50 27.99261 -82.54047 33 ft 0 kts 284°
2026-05-07 16:51 27.99262 -82.54123 33 ft 21 kts 245°
2026-05-07 16:51 27.99109 -82.54139 35 ft 45 kts 180°
2026-05-07 16:52 27.98590 -82.54156 48 ft 99 kts 178°
2026-05-07 16:52 27.97818 -82.54182 226 ft 121 kts 180°
2026-05-07 16:52 27.96903 -82.54194 453 ft 142 kts 181°
2026-05-07 16:52 27.95853 -82.54210 716 ft 159 kts 182°
2026-05-07 16:53 27.94723 -82.54196 1083 ft 167 kts 179°
2026-05-07 16:53 27.93529 -82.54166 1429 ft 173 kts 182°
2026-05-07 16:53 27.92310 -82.54126 1783 ft 177 kts 179°
2026-05-07 16:53 27.91117 -82.53871 2282 ft 175 kts 159°
2026-05-07 16:54 27.90193 -82.52928 2681 ft 181 kts 144°
2026-05-07 16:54 27.89065 -82.52443 3138 ft 174 kts 179°
2026-05-07 16:54 27.87841 -82.52288 3530 ft 180 kts 167°
2026-05-07 16:54 27.86667 -82.51774 3951 ft 183 kts 160°
2026-05-07 16:55 27.85495 -82.51192 4345 ft 186 kts 160°
2026-05-07 16:55 27.84292 -82.50614 4757 ft 190 kts 160°
2026-05-07 16:55 27.83084 -82.50046 5121 ft 191 kts 160°
2026-05-07 16:55 27.81849 -82.49450 5471 ft 192 kts 159°
2026-05-07 16:56 27.80638 -82.48869 5832 ft 192 kts 160°
2026-05-07 16:56 27.79385 -82.48276 6188 ft 194 kts 161°
2026-05-07 16:56 27.76890 -82.47090 6882 ft 196 kts 160°
2026-05-07 16:57 27.75633 -82.46492 7243 ft 197 kts 161°
2026-05-07 16:57 27.74369 -82.45894 7591 ft 198 kts 161°
2026-05-07 16:57 27.73096 -82.45289 7914 ft 199 kts 161°
2026-05-07 16:57 27.71819 -82.44681 8305 ft 199 kts 160°
2026-05-07 16:58 27.71337 -82.44453 8432 ft 200 kts 161°
2026-05-07 16:58 27.71008 -82.44296 8517 ft 200 kts 160°
2026-05-07 16:58 27.69722 -82.43682 8882 ft 202 kts 161°
2026-05-07 16:58 27.68427 -82.43068 9258 ft 202 kts 161°
2026-05-07 16:59 27.67126 -82.42452 9593 ft 204 kts 161°
2026-05-07 16:59 27.65815 -82.41830 9937 ft 205 kts 161°
2026-05-07 16:59 27.64493 -82.41205 10243 ft 206 kts 162°
2026-05-07 16:59 27.63171 -82.40575 10541 ft 207 kts 161°
2026-05-07 17:00 27.61832 -82.39942 10861 ft 210 kts 161°
2026-05-07 17:00 27.60483 -82.39302 11235 ft 211 kts 161°
2026-05-07 17:00 27.59121 -82.38656 11589 ft 213 kts 161°
2026-05-07 17:00 27.57749 -82.38008 11926 ft 215 kts 161°
2026-05-07 17:01 27.56358 -82.37350 12281 ft 217 kts 161°
2026-05-07 17:01 27.54962 -82.36690 12623 ft 219 kts 161°
2026-05-07 17:01 27.53545 -82.36019 12954 ft 221 kts 161°
2026-05-07 17:01 27.52122 -82.35344 13305 ft 223 kts 161°
2026-05-07 17:02 27.50683 -82.34665 13640 ft 225 kts 161°
2026-05-07 17:02 27.49232 -82.33978 13955 ft 227 kts 161°
2026-05-07 17:02 27.47768 -82.33287 14231 ft 229 kts 161°
2026-05-07 17:02 27.46291 -82.32590 14537 ft 231 kts 161°
2026-05-07 17:03 27.44807 -82.31887 14818 ft 232 kts 161°
2026-05-07 17:03 27.43301 -82.31176 14986 ft 240 kts 161°
2026-05-07 17:03 27.41712 -82.30434 14992 ft 254 kts 161°
2026-05-07 17:03 27.40055 -82.29652 15000 ft 263 kts 161°
2026-05-07 17:04 27.38366 -82.28854 14997 ft 270 kts 161°
2026-05-07 17:04 27.36632 -82.28030 14998 ft 275 kts 161°
2026-05-07 17:04 27.34847 -82.27189 14998 ft 280 kts 161°
2026-05-07 17:04 27.33034 -82.26337 14998 ft 284 kts 161°
2026-05-07 17:05 27.31209 -82.25480 14995 ft 286 kts 161°
2026-05-07 17:05 27.29367 -82.24611 14994 ft 288 kts 161°
2026-05-07 17:05 27.27516 -82.23738 14997 ft 288 kts 161°
2026-05-07 17:05 27.25660 -82.22866 14988 ft 290 kts 160°
2026-05-07 17:06 27.23800 -82.21991 14987 ft 290 kts 160°
2026-05-07 17:06 27.21936 -82.21114 14988 ft 290 kts 160°
2026-05-07 17:06 27.20071 -82.20237 14988 ft 291 kts 160°
2026-05-07 17:06 27.18210 -82.19363 14988 ft 291 kts 160°
2026-05-07 17:07 27.16341 -82.18485 14988 ft 291 kts 160°
2026-05-07 17:07 27.14477 -82.17608 14988 ft 291 kts 160°
2026-05-07 17:07 27.12611 -82.16733 14988 ft 290 kts 160°
2026-05-07 17:07 27.10746 -82.15861 15001 ft 291 kts 160°
2026-05-07 17:08 27.08874 -82.14985 15001 ft 291 kts 160°
2026-05-07 17:08 27.07010 -82.14103 15007 ft 291 kts 160°
2026-05-07 17:08 27.05136 -82.13221 15006 ft 291 kts 160°
2026-05-07 17:08 27.03267 -82.12347 15005 ft 292 kts 160°
2026-05-07 17:09 27.01391 -82.11473 15008 ft 292 kts 160°
2026-05-07 17:09 26.99517 -82.10598 15009 ft 292 kts 160°
2026-05-07 17:09 26.97645 -82.09712 15009 ft 292 kts 160°
2026-05-07 17:09 26.95775 -82.08832 15010 ft 292 kts 160°
2026-05-07 17:10 26.93905 -82.07951 15002 ft 292 kts 157°
2026-05-07 17:10 26.92188 -82.06720 15005 ft 293 kts 147°
2026-05-07 17:10 26.90500 -82.05435 15000 ft 293 kts 149°
2026-05-07 17:10 26.88795 -82.04198 15005 ft 293 kts 149°
2026-05-07 17:11 26.87088 -82.02936 15002 ft 293 kts 148°
2026-05-07 17:11 26.85445 -82.01695 15005 ft 293 kts 148°
2026-05-07 17:11 26.83709 -82.00398 15003 ft 292 kts 148°
2026-05-07 17:11 26.82017 -81.99140 15004 ft 292 kts 148°
2026-05-07 17:12 26.80350 -81.97900 15000 ft 293 kts 148°
2026-05-07 17:12 26.78651 -81.96630 15000 ft 294 kts 148°
2026-05-07 17:12 26.76952 -81.95364 14998 ft 294 kts 148°
2026-05-07 17:12 26.75243 -81.94098 14997 ft 295 kts 148°
2026-05-07 17:13 26.73531 -81.92820 14997 ft 296 kts 148°
2026-05-07 17:13 26.71816 -81.91547 14979 ft 296 kts 148°
2026-05-07 17:13 26.70099 -81.90272 14980 ft 297 kts 148°
2026-05-07 17:13 26.68377 -81.88991 14978 ft 297 kts 148°
2026-05-07 17:14 26.66661 -81.87714 14979 ft 297 kts 148°
2026-05-07 17:14 26.64938 -81.86437 14979 ft 296 kts 148°
2026-05-07 17:14 26.63221 -81.85164 14978 ft 296 kts 147°
2026-05-07 17:14 26.61510 -81.83890 14979 ft 295 kts 147°
2026-05-07 17:15 26.59800 -81.82621 14976 ft 295 kts 148°
2026-05-07 17:15 26.58108 -81.81372 14976 ft 295 kts 148°
2026-05-07 17:15 26.56404 -81.80107 14985 ft 294 kts 148°
2026-05-07 17:15 26.54697 -81.78842 14986 ft 294 kts 148°
2026-05-07 17:16 26.52976 -81.77606 14981 ft 293 kts 153°
2026-05-07 17:16 26.51093 -81.76752 14984 ft 292 kts 161°
2026-05-07 17:16 26.49203 -81.75931 14985 ft 292 kts 159°
2026-05-07 17:16 26.47326 -81.75065 14983 ft 292 kts 159°
2026-05-07 17:17 26.45444 -81.74229 14986 ft 292 kts 160°
2026-05-07 17:17 26.43553 -81.73408 14985 ft 291 kts 160°
2026-05-07 17:17 26.41664 -81.72579 14982 ft 292 kts 160°
2026-05-07 17:17 26.39777 -81.71743 14981 ft 291 kts 160°
2026-05-07 17:18 26.37896 -81.70910 14981 ft 291 kts 160°
2026-05-07 17:18 26.36016 -81.70081 14979 ft 290 kts 160°
2026-05-07 17:18 26.34139 -81.69257 14979 ft 290 kts 160°
2026-05-07 17:18 26.32258 -81.68429 14981 ft 290 kts 159°
2026-05-07 17:19 26.30384 -81.67599 14979 ft 290 kts 159°
2026-05-07 17:19 26.28509 -81.66777 14979 ft 290 kts 160°
2026-05-07 17:19 26.26633 -81.65952 14979 ft 290 kts 159°
2026-05-07 17:19 26.24760 -81.65123 14979 ft 290 kts 160°
2026-05-07 17:20 26.22898 -81.64307 14982 ft 290 kts 160°
2026-05-07 17:20 26.21028 -81.63488 14980 ft 290 kts 159°
2026-05-07 17:20 26.19146 -81.62657 14980 ft 291 kts 159°
2026-05-07 17:20 26.17261 -81.61826 14981 ft 292 kts 159°
2026-05-07 17:21 26.15373 -81.61000 14983 ft 292 kts 160°
2026-05-07 17:21 26.13478 -81.60170 14982 ft 292 kts 160°
2026-05-07 17:21 26.11587 -81.59339 14983 ft 292 kts 159°
2026-05-07 17:21 26.09696 -81.58509 14982 ft 292 kts 159°
2026-05-07 17:22 26.07808 -81.57682 14984 ft 292 kts 160°
2026-05-07 17:22 26.05917 -81.56852 14983 ft 292 kts 159°
2026-05-07 17:22 26.04023 -81.56022 14976 ft 293 kts 160°
2026-05-07 17:22 26.02124 -81.55192 14976 ft 293 kts 159°
2026-05-07 17:23 26.00230 -81.54361 14976 ft 293 kts 159°
2026-05-07 17:23 25.98359 -81.53543 14977 ft 292 kts 159°
2026-05-07 17:23 25.96444 -81.52701 14975 ft 292 kts 158°
2026-05-07 17:23 25.94725 -81.51564 14972 ft 292 kts 141°
2026-05-07 17:24 25.93318 -81.49945 14969 ft 292 kts 126°
2026-05-07 17:24 25.92337 -81.47983 14968 ft 291 kts 111°
2026-05-07 17:24 25.91845 -81.45818 14969 ft 289 kts 96°
2026-05-07 17:24 25.91631 -81.43605 14971 ft 288 kts 95°
2026-05-07 17:25 25.91396 -81.41410 14974 ft 288 kts 96°
2026-05-07 17:25 25.91159 -81.39181 14974 ft 288 kts 95°
2026-05-07 17:25 25.90936 -81.36966 14974 ft 288 kts 95°
2026-05-07 17:25 25.90711 -81.34756 14976 ft 289 kts 95°
2026-05-07 17:26 25.90478 -81.32540 14974 ft 289 kts 95°
2026-05-07 17:26 25.90247 -81.30329 14974 ft 288 kts 95°
2026-05-07 17:26 25.90098 -81.28863 14974 ft 288 kts 95°
2026-05-07 17:26 25.89869 -81.26655 14974 ft 288 kts 95°
2026-05-07 17:27 25.89637 -81.24452 14976 ft 288 kts 95°
2026-05-07 17:27 25.89405 -81.22244 14978 ft 287 kts 95°
2026-05-07 17:27 25.89177 -81.20043 14973 ft 287 kts 95°
2026-05-07 17:27 25.88947 -81.17839 14975 ft 287 kts 95°
2026-05-07 17:28 25.88716 -81.15638 14973 ft 287 kts 95°
2026-05-07 17:28 25.88485 -81.13440 14973 ft 287 kts 96°
2026-05-07 17:28 25.88251 -81.11236 14974 ft 287 kts 95°
2026-05-07 17:28 25.88020 -81.09039 14975 ft 286 kts 95°
2026-05-07 17:29 25.87789 -81.06838 14972 ft 287 kts 95°
2026-05-07 17:29 25.87554 -81.04643 14973 ft 287 kts 96°
2026-05-07 17:29 25.87322 -81.02477 14973 ft 286 kts 95°
2026-05-07 17:29 25.87091 -81.00282 14972 ft 287 kts 95°
2026-05-07 17:30 25.86862 -80.98077 14969 ft 288 kts 95°
2026-05-07 17:30 25.86624 -80.95865 14969 ft 289 kts 95°
2026-05-07 17:30 25.86386 -80.93646 14970 ft 289 kts 95°
2026-05-07 17:30 25.86150 -80.91428 14971 ft 289 kts 95°
2026-05-07 17:31 25.85913 -80.89213 14975 ft 289 kts 96°
2026-05-07 17:31 25.85678 -80.86999 14911 ft 291 kts 95°
2026-05-07 17:31 25.85483 -80.84767 14539 ft 286 kts 94°
2026-05-07 17:31 25.85322 -80.82590 14213 ft 279 kts 94°
2026-05-07 17:32 25.85171 -80.80463 13886 ft 274 kts 93°
2026-05-07 17:32 25.85026 -80.78379 13525 ft 269 kts 94°
2026-05-07 17:32 25.84886 -80.76319 13173 ft 264 kts 94°
2026-05-07 17:32 25.84501 -80.74368 12805 ft 257 kts 114°
2026-05-07 17:33 25.83554 -80.72703 12462 ft 253 kts 124°
2026-05-07 17:33 25.82644 -80.71058 12128 ft 248 kts 116°
2026-05-07 17:33 25.81987 -80.69303 11793 ft 245 kts 109°
2026-05-07 17:33 25.81433 -80.67584 11335 ft 221 kts 110°
2026-05-07 17:34 25.80860 -80.66022 10528 ft 219 kts 113°
2026-05-07 17:34 25.80262 -80.64473 9544 ft 220 kts 113°
2026-05-07 17:34 25.79669 -80.62901 8423 ft 221 kts 112°
2026-05-07 17:34 25.79072 -80.61318 7287 ft 221 kts 113°
2026-05-07 17:35 25.78438 -80.59773 6345 ft 227 kts 114°
2026-05-07 17:35 25.77913 -80.58019 5553 ft 250 kts 104°
2026-05-07 17:35 25.77586 -80.56113 5056 ft 252 kts 96°
2026-05-07 17:35 25.77460 -80.54190 4508 ft 252 kts 92°
2026-05-07 17:36 25.77443 -80.52234 4035 ft 249 kts 90°
2026-05-07 17:36 25.77519 -80.50357 3657 ft 245 kts 83°
2026-05-07 17:36 25.77706 -80.48518 3200 ft 235 kts 85°
2026-05-07 17:36 25.77827 -80.46757 2846 ft 224 kts 86°
2026-05-07 17:37 25.77927 -80.45073 2558 ft 217 kts 87°
2026-05-07 17:37 25.78066 -80.43400 2119 ft 219 kts 84°
2026-05-07 17:37 25.78154 -80.41749 1791 ft 212 kts 90°
2026-05-07 17:37 25.78234 -80.40129 1487 ft 202 kts 87°
2026-05-07 17:38 25.78303 -80.38725 1096 ft 167 kts 88°
2026-05-07 17:38 25.78366 -80.37505 873 ft 156 kts 86°
2026-05-07 17:38 25.78439 -80.36320 751 ft 152 kts 90°
2026-05-07 17:38 25.78475 -80.35194 629 ft 126 kts 90°
2026-05-07 17:39 25.78534 -80.34322 486 ft 111 kts 87°
2026-05-07 17:39 25.78558 -80.33448 399 ft 117 kts 90°
2026-05-07 17:39 25.78573 -80.32537 279 ft 118 kts 90°
2026-05-07 17:39 25.78612 -80.31651 142 ft 112 kts 90°
2026-05-07 17:40 25.78638 -80.30839 34 ft 98 kts 91°
2026-05-07 17:40 25.78662 -80.30196 16 ft 71 kts 88°
2026-05-07 17:40 25.78723 -80.29804 16 ft 27 kts
2026-05-07 17:40 25.78765 -80.29832 17 ft 0 kts 324°
2026-05-07 17:41 25.78773 -80.29838 17 ft 4 kts 333°
2026-05-07 17:41 25.78779 -80.29841 17 ft 0 kts 341°
2026-05-07 17:42 25.78819 -80.29849 18 ft 16 kts
2026-05-07 17:42 25.78873 -80.29790 17 ft 17 kts 87°
2026-05-07 17:42 25.78877 -80.29709 17 ft 2 kts 87°
2026-05-07 17:43 25.78877 -80.29708 17 ft 2 kts 87°
2026-05-07 17:43 25.78877 -80.29707 17 ft 0 kts 87°
2026-05-07 17:43 25.78877 -80.29706 17 ft 1 kts 87°
2026-05-07 17:43 25.78880 -80.29612 18 ft 16 kts 89°
2026-05-07 17:44 25.78888 -80.29488 18 ft 23 kts 88°
2026-05-07 17:44 25.78894 -80.29319 14 ft 17 kts 89°
2026-05-07 17:44 25.78899 -80.29164 12 ft 24 kts 88°
2026-05-07 17:44 25.78907 -80.29040 14 ft 10 kts 81°
2026-05-07 17:45 25.78924 -80.28963 14 ft 18 kts 73°
2026-05-07 17:45 25.79003 -80.28877 12 ft 21 kts 355°
2026-05-07 17:45 25.79104 -80.28964 10 ft 20 kts 296°
2026-05-07 17:45 25.79190 -80.29132 13 ft 28 kts 299°
2026-05-07 17:46 25.79294 -80.29336 15 ft 32 kts 300°
2026-05-07 17:46 25.79405 -80.29551 18 ft 28 kts 299°
2026-05-07 17:46 25.79456 -80.29646 18 ft 14 kts 312°
2026-05-07 17:46 25.79531 -80.29776 18 ft 25 kts 301°
2026-05-07 17:47 25.79630 -80.29953 13 ft 21 kts 301°
2026-05-07 17:47 25.79685 -80.30059 14 ft 18 kts 295°
2026-05-07 17:47 25.79743 -80.30187 14 ft 15 kts 289°
2026-05-07 17:47 25.79795 -80.30271 15 ft 17 kts 351°
2026-05-07 17:48 25.79919 -80.30207 15 ft 16 kts 35°
2026-05-07 17:48 25.79978 -80.30100 13 ft 17 kts 357°
2026-05-07 17:48 25.79995 -80.30116 13 ft 0 kts 316°
2026-05-07 17:48 25.80049 -80.30127 13 ft 13 kts 352°
2026-05-07 17:49 25.80182 -80.30135 13 ft 18 kts 353°
2026-05-07 17:49 25.80329 -80.30145 15 ft 22 kts 355°
2026-05-07 17:49 25.80403 -80.30078 16 ft 18 kts 83°
2026-05-07 17:49 25.80411 -80.29914 16 ft 11 kts 85°
2026-05-07 17:50 25.80411 -80.29908 16 ft 0 kts 86°
2026-05-07 17:50 25.80412 -80.29889 16 ft 16 kts 88°
2026-05-07 17:51 25.80420 -80.29678 18 ft 34 kts 86°
2026-05-07 17:51 25.80437 -80.29470 15 ft 21 kts 73°
2026-05-07 17:51 25.80438 -80.29342 16 ft 16 kts 91°
2026-05-07 17:51 25.80444 -80.29193 16 ft 22 kts 81°
2026-05-07 17:52 25.80542 -80.29136 14 ft 14 kts
2026-05-07 17:52 25.80638 -80.29116 13 ft 11 kts 38°
2026-05-07 17:52 25.80639 -80.29049 14 ft 3 kts 56°